Regional Weather Roundup
Issued by NWS Kansas City/Pleasant Hill, MO

Home | Current Version | Previous Version | Graphics & Text | Print | Product List | Glossary Off
Versions: 1 2 3 4 5 6 7 8 9 10 11 12 13 14 15 16 17 18 19 20 21 22 23 24 25 26 27

000
ASUS43 KEAX 281510
RWREAX

WEATHER ROUNDUP FOR EASTERN KANSAS AND NORTHWEST MISSOURI
NATIONAL WEATHER SERVICE KANSAS CITY/PLEASANT HILL MO
1000 AM CDT FRI APR 28 2017

KSZ040-057-103>105-MOZ028-029-037-043-281600-
...KANSAS CITY METROPOLITAN AREA...

CITY           SKY/WX    TMP DP  RH WIND       PRES   REMARKS
K.C. INTL      CLOUDY    53  51  93 E12       29.67S
K.C. DOWNTOWN  CLOUDY    55  53  93 E8        29.66S
LEES SUMMIT    CLOUDY    55  54  96 SE7       29.67F
OLATHE - IXD   CLOUDY    55  53  93 E6        29.66S
OLATHE - OJC   CLOUDY    54  54 100 E7        29.65R
LAWRENCE       CLOUDY    56  54  93 E8        29.66S

$$

MOZ001>008-011>017-020>025-030>033-038>040-044>046-053-054-281600-
...NORTHERN AND CENTRAL MISSOURI...

CITY           SKY/WX    TMP DP  RH WIND       PRES   REMARKS
ST. JOSEPH     CLOUDY    49  49 100 MISG      29.68F
MOSBY          CLOUDY    52  52 100 E7        29.68F
WHITEMAN AFB   LGT RAIN  55  55 100 SE5       29.71R
CLINTON        LGT RAIN  57  57 100 S14       29.71F
SEDALIA        LGT RAIN  57  57 100 MISG      29.71F
WARSAW         NOT AVBL
CHILLICOTHE      N/A     50  49  96 VRB6      29.74F
KIRKSVILLE     LGT RAIN  47  46  97 NE8       29.79R FOG

$$

MOZ041-047>049-056>058-063>065-088>090-097-281600-
...EASTERN AND SOUTHERN MISSOURI...

CITY           SKY/WX    TMP DP  RH WIND       PRES   REMARKS
ST. LOUIS INTL LGT RAIN  57  53  86 SE16      29.86S
SPIRIT OF STL  LGT RAIN  56  54  93 SE10      29.83F
COLUMBIA       RAIN      54  53  97 SE10      29.76S FOG
JEFFERSON CITY LGT RAIN  58  53  84 E5        29.77R
ROLLA          TSTM      55  54  96 SE12G25   29.78F
OSAGE BEACH    LGT RAIN  56  54  93 SE9       29.75S
SPRINGFIELD    LGT RAIN  58  55  90 SE16      29.67F
BRANSON        CLOUDY    55  54  94 SE15      29.72F
JOPLIN         LGT RAIN  58  56  93 SE6       29.67R FOG
WEST PLAINS    CLOUDY    60  54  80 E10       29.78F

$$

IAZ060-094-KSZ022-034>040-054-083-096-NEZ052-066-093-281600-
...KANSAS...SOUTHEAST NEBRASKA AND IOWA...

CITY           SKY/WX    TMP DP  RH WIND       PRES   REMARKS
TOPEKA         CLOUDY    55  54  96 E8        29.65S
MANHATTAN      CLOUDY    54  54 100 CALM      29.64R
EMPORIA        CLOUDY    55  53  93 NW3       29.65R
CHANUTE        CLOUDY    60  56  86 SE15G25   29.62R
WICHITA        PTSUNNY   60  55  83 S12       29.63F
OMAHA          LGT RAIN  39  33  79 NE17G23   29.80F WCI  30
LINCOLN        LGT RAIN  40  38  93 NE16      29.77R FOG     WCI  31
FALLS CITY     CLOUDY    44  42  93 NE10      29.69S
LAMONI         LGT RAIN  40  37  89 NE16G28   29.77F FOG     WCI  31
DES MOINES     LGT RAIN  38  32  79 NE10      29.87F WCI  31

$$





USA.gov is the U.S. government's official web portal to all federal, state and local government web resources and services.